CKK258 ZHHH-ZUGY

Flight info

Callsign CKK258
Flight time 1h 31m
Altitude 36100
Route GUGAM1E GUGAM A581 HUY W183 TRN W680 UBGUP UBGUP9Z
Aircraft B77L/H-SDE1E2E3FGHIJ2J3J4J5M1RWXY/LB1D1

Departure

Time 2026-04-21 14:21
Airport Wuhan Tianhe International Airport (ZHHH)

Arrival

Time 2026-04-21 15:52
Airport Guiyang Longdongbao International Airport (ZUGY)
Time Latitude Longitude Altitude Speed Heading
2026-04-21 13:42 30.77131 114.21909 110 ft 0 kts 358°
2026-04-21 14:10 30.77124 114.21909 112 ft 4 kts
2026-04-21 14:10 30.77098 114.21906 111 ft 4 kts 18°
2026-04-21 14:10 30.77076 114.21892 108 ft 4 kts 60°
2026-04-21 14:10 30.77074 114.21874 109 ft 1 kts 133°
2026-04-21 14:11 30.77074 114.21873 109 ft 0 kts 133°
2026-04-21 14:15 30.77062 114.21890 88 ft 3 kts 130°
2026-04-21 14:15 30.77045 114.21912 110 ft 5 kts 132°
2026-04-21 14:15 30.77017 114.21933 111 ft 5 kts 162°
2026-04-21 14:15 30.76985 114.21945 111 ft 5 kts 157°
2026-04-21 14:16 30.76954 114.21966 109 ft 6 kts 149°
2026-04-21 14:16 30.76918 114.21980 112 ft 6 kts 176°
2026-04-21 14:16 30.76882 114.21958 110 ft 7 kts 222°
2026-04-21 14:16 30.76848 114.21923 110 ft 7 kts 221°
2026-04-21 14:17 30.76805 114.21877 111 ft 9 kts 222°
2026-04-21 14:17 30.76758 114.21829 109 ft 9 kts 221°
2026-04-21 14:17 30.76727 114.21797 110 ft 9 kts 221°
2026-04-21 14:17 30.76647 114.21714 109 ft 13 kts 221°
2026-04-21 14:18 30.76578 114.21646 111 ft 13 kts 221°
2026-04-21 14:18 30.76533 114.21599 109 ft 13 kts 221°
2026-04-21 14:18 30.76443 114.21505 108 ft 13 kts 222°
2026-04-21 14:18 30.76372 114.21432 111 ft 15 kts 220°
2026-04-21 14:19 30.76317 114.21377 110 ft 15 kts 220°
2026-04-21 14:19 30.76236 114.21295 110 ft 15 kts 221°
2026-04-21 14:19 30.76128 114.21187 110 ft 15 kts 220°
2026-04-21 14:19 30.76072 114.21133 109 ft 15 kts 214°
2026-04-21 14:20 30.75973 114.21152 111 ft 16 kts 147°
2026-04-21 14:20 30.75966 114.21295 111 ft 16 kts 36°
2026-04-21 14:20 30.76026 114.21346 112 ft 16 kts 39°
2026-04-21 14:20 30.76181 114.21503 109 ft 57 kts 41°
2026-04-21 14:21 30.76674 114.22007 113 ft 128 kts 41°
2026-04-21 14:21 30.77495 114.22822 154 ft 175 kts 39°
2026-04-21 14:21 30.78409 114.23774 685 ft 176 kts 39°
2026-04-21 14:21 30.79325 114.24730 1244 ft 188 kts 38°
2026-04-21 14:22 30.80339 114.25758 1884 ft 197 kts 38°
2026-04-21 14:22 30.81446 114.26878 2210 ft 226 kts 39°
2026-04-21 14:22 30.82676 114.28133 2768 ft 244 kts 40°
2026-04-21 14:22 30.83978 114.29468 3402 ft 258 kts 40°
2026-04-21 14:23 30.85357 114.30885 4053 ft 271 kts 40°
2026-04-21 14:23 30.86801 114.32370 4783 ft 280 kts 40°
2026-04-21 14:23 30.88273 114.33884 5657 ft 284 kts 40°
2026-04-21 14:23 30.89765 114.35423 6494 ft 289 kts 40°
2026-04-21 14:24 30.91404 114.36754 7128 ft 290 kts 18°
2026-04-21 14:24 30.93377 114.37053 7851 ft 286 kts 348°
2026-04-21 14:24 30.95209 114.36271 8727 ft 279 kts 323°
2026-04-21 14:24 30.96655 114.34804 9550 ft 276 kts 308°
2026-04-21 14:25 30.97920 114.33122 10322 ft 279 kts 307°
2026-04-21 14:25 30.99239 114.31350 10661 ft 302 kts 307°
2026-04-21 14:25 31.00685 114.29421 10844 ft 330 kts 307°
2026-04-21 14:25 31.02258 114.27335 11076 ft 351 kts 307°
2026-04-21 14:26 31.03529 114.24892 11473 ft 358 kts 287°
2026-04-21 14:26 31.03904 114.22035 12331 ft 358 kts 267°
2026-04-21 14:26 31.03434 114.19196 13372 ft 359 kts 250°
2026-04-21 14:26 31.02272 114.16612 14291 ft 363 kts 234°
2026-04-21 14:27 31.00467 114.14527 14911 ft 370 kts 224°
2026-04-21 14:27 30.98494 114.12551 15598 ft 378 kts 224°
2026-04-21 14:27 30.96483 114.10557 16424 ft 380 kts 224°
2026-04-21 14:27 30.94467 114.08552 17289 ft 382 kts 224°
2026-04-21 14:28 30.92441 114.06520 18112 ft 386 kts 224°
2026-04-21 14:28 30.90400 114.04458 18741 ft 391 kts 224°
2026-04-21 14:28 30.88338 114.02364 19348 ft 396 kts 224°
2026-04-21 14:28 30.86251 114.00240 19965 ft 401 kts 224°
2026-04-21 14:29 30.84141 113.98091 20588 ft 405 kts 224°
2026-04-21 14:29 30.82016 113.95927 21198 ft 408 kts 224°
2026-04-21 14:29 30.79870 113.93741 21844 ft 412 kts 224°
2026-04-21 14:29 30.77703 113.91536 22423 ft 416 kts 224°
2026-04-21 14:30 30.75511 113.89307 22985 ft 421 kts 224°
2026-04-21 14:30 30.73294 113.87052 23545 ft 425 kts 224°
2026-04-21 14:30 30.71057 113.84781 24021 ft 429 kts 224°
2026-04-21 14:30 30.68845 113.82511 24519 ft 430 kts 226°
2026-04-21 14:31 30.66768 113.80015 24989 ft 431 kts 231°
2026-04-21 14:31 30.64816 113.77356 25480 ft 434 kts 232°
2026-04-21 14:31 30.62901 113.74638 25984 ft 437 kts 233°
2026-04-21 14:31 30.60971 113.71893 26429 ft 440 kts 233°
2026-04-21 14:32 30.59011 113.69142 26873 ft 444 kts 232°
2026-04-21 14:32 30.57020 113.66387 27357 ft 447 kts 232°
2026-04-21 14:32 30.55003 113.63628 27847 ft 450 kts 232°
2026-04-21 14:32 30.52963 113.60856 28332 ft 452 kts 232°
2026-04-21 14:33 30.50912 113.58079 28768 ft 455 kts 232°
2026-04-21 14:33 30.48844 113.55284 29171 ft 458 kts 232°
2026-04-21 14:33 30.46763 113.52473 29581 ft 461 kts 232°
2026-04-21 14:33 30.44670 113.49647 29977 ft 464 kts 232°
2026-04-21 14:34 30.42562 113.46801 30320 ft 466 kts 232°
2026-04-21 14:34 30.40450 113.43952 30655 ft 467 kts 232°
2026-04-21 14:34 30.38335 113.41102 31004 ft 468 kts 232°
2026-04-21 14:34 30.36209 113.38236 31307 ft 469 kts 232°
2026-04-21 14:35 30.34083 113.35373 31639 ft 469 kts 232°
2026-04-21 14:35 30.31958 113.32514 32067 ft 467 kts 232°
2026-04-21 14:35 30.29847 113.29677 32570 ft 463 kts 233°
2026-04-21 14:35 30.27758 113.26870 33092 ft 459 kts 233°
2026-04-21 14:36 30.25681 113.24079 33579 ft 456 kts 233°
2026-04-21 14:36 30.23622 113.21316 34030 ft 453 kts 233°
2026-04-21 14:36 30.21599 113.18587 34358 ft 451 kts 234°
2026-04-21 14:36 30.19729 113.15638 34585 ft 449 kts 240°
2026-04-21 14:37 30.18066 113.12635 34821 ft 449 kts 242°
2026-04-21 14:37 30.16441 113.09560 35155 ft 447 kts 242°
2026-04-21 14:37 30.14830 113.06499 35519 ft 444 kts 242°
2026-04-21 14:37 30.13216 113.03468 35857 ft 443 kts 242°
2026-04-21 14:38 30.11560 113.00399 35997 ft 446 kts 242°
2026-04-21 14:38 30.08257 112.94370 36092 ft 447 kts 242°
2026-04-21 14:39 30.04923 112.88348 36083 ft 442 kts 242°
2026-04-21 14:39 30.01617 112.82384 36095 ft 440 kts 242°
2026-04-21 14:40 29.98318 112.76436 36095 ft 440 kts 242°
2026-04-21 14:40 29.95019 112.70492 36104 ft 440 kts 242°
2026-04-21 14:41 29.91710 112.64540 36100 ft 441 kts 242°
2026-04-21 14:41 29.88392 112.58582 36109 ft 442 kts 242°
2026-04-21 14:42 29.85087 112.52663 36086 ft 427 kts 242°
2026-04-21 14:42 29.83511 112.49851 36083 ft 410 kts 242°
2026-04-21 14:42 29.81994 112.47142 36086 ft 395 kts 242°
2026-04-21 14:43 29.79030 112.41827 36104 ft 395 kts 242°
2026-04-21 14:43 29.76065 112.36522 36109 ft 393 kts 242°
2026-04-21 14:44 29.73166 112.31225 36109 ft 386 kts 249°
2026-04-21 14:44 29.72360 112.28331 36126 ft 378 kts 262°
2026-04-21 14:44 29.72135 112.25329 36124 ft 376 kts 270°
2026-04-21 14:45 29.72765 112.19363 36131 ft 378 kts 282°
2026-04-21 14:45 29.74733 112.13731 36119 ft 386 kts 299°
2026-04-21 14:45 29.76422 112.11350 36127 ft 396 kts 311°
2026-04-21 14:46 29.78658 112.09437 36121 ft 408 kts 323°
2026-04-21 14:46 29.81321 112.08144 36135 ft 422 kts 336°
2026-04-21 14:46 29.84250 112.07507 36136 ft 436 kts 347°
2026-04-21 14:46 29.87331 112.07528 36130 ft 451 kts 358°
2026-04-21 14:47 29.90450 112.08260 36134 ft 466 kts 10°
2026-04-21 14:47 29.93455 112.09794 36141 ft 481 kts 23°
2026-04-21 14:47 29.96205 112.12077 36141 ft 495 kts 37°
2026-04-21 14:47 29.98401 112.15188 36139 ft 506 kts 53°
2026-04-21 14:48 30.00233 112.18668 36149 ft 508 kts 54°
2026-04-21 14:48 30.03919 112.25630 36143 ft 509 kts 52°
2026-04-21 14:49 30.07680 112.32561 36119 ft 512 kts 62°
2026-04-21 14:49 30.08766 112.36498 36125 ft 519 kts 81°
2026-04-21 14:49 30.08846 112.40649 36150 ft 519 kts 99°
2026-04-21 14:49 30.07980 112.44661 36139 ft 513 kts 116°
2026-04-21 14:50 30.06958 112.47101 36103 ft 508 kts 126°
2026-04-21 14:50 30.04036 112.51261 36117 ft 493 kts 146°
2026-04-21 14:50 30.01286 112.53521 36118 ft 480 kts 160°
2026-04-21 14:50 29.98241 112.54922 36117 ft 464 kts 175°
2026-04-21 14:51 29.95111 112.55413 36115 ft 447 kts 189°
2026-04-21 14:51 29.92075 112.55053 36119 ft 432 kts 202°
2026-04-21 14:51 29.89273 112.53971 36118 ft 420 kts 213°
2026-04-21 14:52 29.84358 112.50529 36107 ft 408 kts 226°
2026-04-21 14:52 29.82447 112.48204 36094 ft 394 kts 242°
2026-04-21 14:52 29.81005 112.45537 36108 ft 393 kts 243°
2026-04-21 14:53 29.77989 112.40133 36131 ft 409 kts 242°
2026-04-21 14:53 29.74827 112.34544 36124 ft 423 kts 242°
2026-04-21 14:54 29.71576 112.28783 36132 ft 435 kts 242°
2026-04-21 14:54 29.68249 112.22877 36126 ft 444 kts 242°
2026-04-21 14:55 29.64872 112.16891 36125 ft 447 kts 242°
2026-04-21 14:55 29.61487 112.10901 36133 ft 447 kts 241°
2026-04-21 14:56 29.58102 112.04914 36123 ft 446 kts 241°
2026-04-21 14:56 29.54712 111.98957 36127 ft 446 kts 240°
2026-04-21 14:57 29.50888 111.93314 36128 ft 448 kts 236°
2026-04-21 14:57 29.47006 111.87726 36134 ft 447 kts 237°
2026-04-21 14:58 29.43166 111.82175 36130 ft 447 kts 237°
2026-04-21 14:58 29.39308 111.76586 36145 ft 447 kts 237°
2026-04-21 14:59 29.35455 111.71005 36141 ft 446 kts 237°
2026-04-21 14:59 29.31603 111.65433 36135 ft 446 kts 237°
2026-04-21 15:00 29.27748 111.59865 36135 ft 446 kts 237°
2026-04-21 15:00 29.23894 111.54304 36138 ft 446 kts 236°
2026-04-21 15:01 29.20036 111.48748 36143 ft 446 kts 236°
2026-04-21 15:01 29.16175 111.43194 36132 ft 446 kts 237°
2026-04-21 15:02 29.12303 111.37632 36142 ft 447 kts 237°
2026-04-21 15:02 29.08419 111.32059 36140 ft 449 kts 236°
2026-04-21 15:03 29.04525 111.26479 36157 ft 449 kts 236°
2026-04-21 15:03 29.00620 111.20893 36161 ft 450 kts 236°
2026-04-21 15:04 28.96707 111.15303 36145 ft 451 kts 236°
2026-04-21 15:04 28.92788 111.09711 36141 ft 451 kts 236°
2026-04-21 15:05 28.88871 111.04130 36139 ft 450 kts 236°
2026-04-21 15:05 28.83666 110.96726 36150 ft 449 kts 236°
2026-04-21 15:06 28.79756 110.91171 36153 ft 449 kts 236°
2026-04-21 15:06 28.75203 110.84712 36155 ft 450 kts 236°
2026-04-21 15:07 28.71914 110.80052 36137 ft 450 kts 236°
2026-04-21 15:07 28.67985 110.74492 36154 ft 451 kts 236°
2026-04-21 15:08 28.64054 110.68939 36154 ft 450 kts 236°
2026-04-21 15:08 28.60118 110.63385 36150 ft 450 kts 236°
2026-04-21 15:09 28.56211 110.57877 36133 ft 450 kts 236°
2026-04-21 15:09 28.52275 110.52338 36145 ft 450 kts 236°
2026-04-21 15:10 28.48337 110.46805 36128 ft 450 kts 236°
2026-04-21 15:10 28.44400 110.41278 36125 ft 450 kts 236°
2026-04-21 15:11 28.40462 110.35756 36123 ft 450 kts 236°
2026-04-21 15:11 28.36522 110.30241 36112 ft 449 kts 236°
2026-04-21 15:12 28.32587 110.24739 36123 ft 449 kts 236°
2026-04-21 15:12 28.28599 110.19278 36114 ft 450 kts 234°
2026-04-21 15:13 28.24623 110.13824 36107 ft 448 kts 236°
2026-04-21 15:13 28.20724 110.08315 36118 ft 448 kts 236°
2026-04-21 15:14 28.16810 110.02817 36114 ft 448 kts 235°
2026-04-21 15:14 28.12871 109.97329 36111 ft 449 kts 235°
2026-04-21 15:15 28.08916 109.91840 36118 ft 450 kts 235°
2026-04-21 15:15 28.04952 109.86347 36075 ft 450 kts 235°
2026-04-21 15:16 28.00989 109.80865 36095 ft 450 kts 235°
2026-04-21 15:16 27.97024 109.75385 36109 ft 450 kts 235°
2026-04-21 15:17 27.93050 109.69898 36107 ft 451 kts 235°
2026-04-21 15:17 27.89070 109.64407 36107 ft 452 kts 235°
2026-04-21 15:18 27.85084 109.58914 36108 ft 452 kts 235°
2026-04-21 15:18 27.81096 109.53426 36093 ft 452 kts 235°
2026-04-21 15:19 27.77126 109.47975 36092 ft 453 kts 235°
2026-04-21 15:19 27.73142 109.42474 36105 ft 453 kts 235°
2026-04-21 15:20 27.69140 109.36980 36100 ft 453 kts 235°
2026-04-21 15:20 27.65127 109.31499 36072 ft 453 kts 235°
2026-04-21 15:21 27.61120 109.26027 36096 ft 452 kts 235°
2026-04-21 15:21 27.57291 109.20431 36069 ft 448 kts 239°
2026-04-21 15:22 27.53715 109.14694 36094 ft 447 kts 239°
2026-04-21 15:22 27.50138 109.08957 36083 ft 447 kts 239°
2026-04-21 15:23 27.46551 109.03234 36091 ft 447 kts 239°
2026-04-21 15:23 27.42953 108.97508 36086 ft 448 kts 239°
2026-04-21 15:24 27.39344 108.91780 36080 ft 449 kts 239°
2026-04-21 15:24 27.35727 108.86045 36085 ft 449 kts 239°
2026-04-21 15:25 27.32110 108.80317 36077 ft 450 kts 239°
2026-04-21 15:25 27.28485 108.74579 36076 ft 450 kts 239°
2026-04-21 15:26 27.24850 108.68835 36092 ft 451 kts 239°
2026-04-21 15:26 27.21212 108.63094 36081 ft 451 kts 239°
2026-04-21 15:27 27.17559 108.57364 36088 ft 451 kts 238°
2026-04-21 15:27 27.13900 108.51645 36085 ft 451 kts 238°
2026-04-21 15:28 27.10238 108.45925 36079 ft 451 kts 238°
2026-04-21 15:28 27.06577 108.40209 36080 ft 450 kts 239°
2026-04-21 15:29 27.02952 108.34554 36075 ft 449 kts 239°
2026-04-21 15:29 26.99290 108.28891 36081 ft 448 kts 238°
2026-04-21 15:30 26.95551 108.23308 36079 ft 448 kts 238°
2026-04-21 15:30 26.91812 108.17737 36076 ft 447 kts 238°
2026-04-21 15:31 26.88085 108.12163 36053 ft 447 kts 238°
2026-04-21 15:31 26.84343 108.06573 36064 ft 450 kts 237°
2026-04-21 15:32 26.80566 108.00948 36080 ft 453 kts 237°
2026-04-21 15:32 26.78676 107.98138 35677 ft 452 kts 237°
2026-04-21 15:32 26.76771 107.95302 34733 ft 457 kts 237°
2026-04-21 15:33 26.74857 107.92454 33781 ft 460 kts 236°
2026-04-21 15:33 26.72928 107.89584 32718 ft 463 kts 236°
2026-04-21 15:33 26.70988 107.86703 31694 ft 465 kts 236°
2026-04-21 15:33 26.69039 107.83812 30906 ft 463 kts 236°
2026-04-21 15:34 26.67109 107.80950 30157 ft 460 kts 236°
2026-04-21 15:34 26.65187 107.78103 29328 ft 457 kts 236°
2026-04-21 15:34 26.63282 107.75282 28534 ft 452 kts 236°
2026-04-21 15:34 26.61398 107.72495 27865 ft 447 kts 236°
2026-04-21 15:35 26.59533 107.69734 27191 ft 443 kts 236°
2026-04-21 15:35 26.57687 107.67004 26523 ft 438 kts 236°
2026-04-21 15:35 26.55857 107.64298 25883 ft 435 kts 236°
2026-04-21 15:35 26.54065 107.61649 25234 ft 432 kts 236°
2026-04-21 15:36 26.52262 107.58985 24589 ft 429 kts 236°
2026-04-21 15:36 26.50468 107.56336 23952 ft 426 kts 236°
2026-04-21 15:36 26.48683 107.53704 23255 ft 424 kts 236°
2026-04-21 15:36 26.46906 107.51085 22555 ft 421 kts 236°
2026-04-21 15:37 26.45146 107.48497 21934 ft 416 kts 236°
2026-04-21 15:37 26.43404 107.45937 21330 ft 412 kts 236°
2026-04-21 15:37 26.41678 107.43402 20728 ft 408 kts 236°
2026-04-21 15:37 26.39967 107.40891 20141 ft 405 kts 235°
2026-04-21 15:38 26.38265 107.38401 19547 ft 402 kts 236°
2026-04-21 15:38 26.36580 107.35922 18944 ft 400 kts 235°
2026-04-21 15:38 26.34899 107.33466 18375 ft 397 kts 234°
2026-04-21 15:38 26.33217 107.31032 17739 ft 395 kts 234°
2026-04-21 15:39 26.31562 107.28598 17116 ft 393 kts 235°
2026-04-21 15:39 26.29924 107.26171 16528 ft 390 kts 235°
2026-04-21 15:39 26.28290 107.23766 15946 ft 388 kts 235°
2026-04-21 15:39 26.26662 107.21383 15373 ft 385 kts 235°
2026-04-21 15:40 26.25153 107.18975 14833 ft 372 kts 245°
2026-04-21 15:40 26.24338 107.16309 14701 ft 358 kts 258°
2026-04-21 15:40 26.24067 107.13607 14570 ft 345 kts 270°
2026-04-21 15:40 26.24292 107.10988 14442 ft 334 kts 276°
2026-04-21 15:41 26.24604 107.08459 14255 ft 325 kts 276°
2026-04-21 15:41 26.24904 107.05999 14085 ft 316 kts 275°
2026-04-21 15:41 26.25171 107.03612 13914 ft 307 kts 275°
2026-04-21 15:41 26.25431 107.01290 13761 ft 296 kts 275°
2026-04-21 15:42 26.25685 106.99058 13617 ft 285 kts 275°
2026-04-21 15:42 26.25925 106.96942 13522 ft 273 kts 275°
2026-04-21 15:42 26.26152 106.94881 13408 ft 263 kts 275°
2026-04-21 15:42 26.26343 106.92878 13287 ft 248 kts 267°
2026-04-21 15:43 26.25983 106.91106 13132 ft 236 kts 244°
2026-04-21 15:43 26.25037 106.89632 12871 ft 233 kts 229°
2026-04-21 15:43 26.23813 106.88468 12577 ft 231 kts 217°
2026-04-21 15:43 26.22324 106.87801 12294 ft 233 kts 199°
2026-04-21 15:44 26.20732 106.87454 11995 ft 230 kts 201°
2026-04-21 15:44 26.19388 106.86639 11714 ft 218 kts 231°
2026-04-21 15:44 26.18658 106.85192 11438 ft 217 kts 252°
2026-04-21 15:44 26.18445 106.83524 11152 ft 222 kts 272°
2026-04-21 15:45 26.18673 106.81802 10851 ft 229 kts 276°
2026-04-21 15:45 26.18973 106.80030 10502 ft 234 kts 277°
2026-04-21 15:45 26.19272 106.78254 10141 ft 232 kts 276°
2026-04-21 15:45 26.19700 106.76544 9824 ft 231 kts 295°
2026-04-21 15:46 26.20793 106.75222 9479 ft 238 kts 324°
2026-04-21 15:46 26.22367 106.74640 9236 ft 245 kts 353°
2026-04-21 15:46 26.24094 106.74725 9030 ft 254 kts
2026-04-21 15:46 26.25865 106.75010 8661 ft 258 kts
2026-04-21 15:47 26.27622 106.75356 8362 ft 254 kts
2026-04-21 15:47 26.29334 106.75654 8043 ft 245 kts
2026-04-21 15:47 26.30990 106.76006 7754 ft 239 kts
2026-04-21 15:47 26.32595 106.76335 7476 ft 230 kts
2026-04-21 15:48 26.34131 106.76645 7219 ft 218 kts 10°
2026-04-21 15:48 26.35585 106.76931 6974 ft 207 kts 10°
2026-04-21 15:48 26.36962 106.77200 6792 ft 198 kts 12°
2026-04-21 15:48 26.38283 106.77484 6579 ft 189 kts 12°
2026-04-21 15:49 26.39594 106.77717 6305 ft 193 kts
2026-04-21 15:49 26.40874 106.77949 6048 ft 180 kts 16°
2026-04-21 15:49 26.42048 106.78229 5843 ft 167 kts
2026-04-21 15:49 26.43241 106.78347 5626 ft 175 kts 15°
2026-04-21 15:50 26.44426 106.78658 5354 ft 172 kts 13°
2026-04-21 15:50 26.45555 106.78880 5139 ft 159 kts
2026-04-21 15:50 26.46654 106.79051 4974 ft 159 kts
2026-04-21 15:50 26.47748 106.79271 4715 ft 160 kts
2026-04-21 15:51 26.48845 106.79518 4494 ft 162 kts
2026-04-21 15:51 26.49957 106.79740 4250 ft 162 kts
2026-04-21 15:51 26.51055 106.79923 4056 ft 159 kts
2026-04-21 15:51 26.52146 106.80164 3931 ft 164 kts 13°
2026-04-21 15:52 26.53267 106.80364 3745 ft 159 kts 12°
2026-04-21 15:52 26.54271 106.80570 3721 ft 130 kts 12°
2026-04-21 15:52 26.54795 106.80676 3725 ft 101 kts
2026-04-21 15:52 26.55225 106.80761 3727 ft 30 kts 11°
2026-04-21 15:53 26.55420 106.80783 3695 ft 14 kts 329°
2026-04-21 15:53 26.55475 106.80660 3710 ft 20 kts 281°
2026-04-21 15:53 26.55483 106.80501 3717 ft 21 kts 275°
2026-04-21 15:53 26.55504 106.80340 3712 ft 23 kts 274°